www.pogodaiklimat.ru

Погода и климат >> Архив погоды >> Индия >> Махараштра >> Амравати


ПОГОДА в Амравати

  • Прогноз погоды в Амравати
  • Монитор погоды в Амравати

АРХИВ ПОГОДЫ в Амравати

Время (UTC), дата Ветер
(напр.,м/с)
 
Видим.   Явления Облачность Т
(С)
Тd
(С)
f
(%)
Тe
(С)
Тes
(С)
Комфортность P
(гПа)
Po
(гПа)
Тmin
(С)
Tmax
(С)
R
(мм)
R24
(мм)
S
(см)
03 13.07 З 1 4000 м ясно +27.4 +22.9 76 +36 +46 очень
душно
1005.6 964.2 +25.2
06 13.07 З 1 4000 м ясно +31.6 +21.1 54 +39 +64 опасность
солнечного
удара
1004.7 963.9
09 13.07 З 1 4000 м 6/4 600 м
[Sc Ac trans Ci fib]
+34.2 +20.8 46 +41 +51 опасность
перегрева
996.8 956.6
12 13.07 З 1 4000 м 6/4 600 м
[Sc Ac trans]
+34.0 +20.5 45 +41 +42 опасность
перегрева
1001.0 960.6 +34.8
06 14.07 З 1 4000 м 6/4 600 м
[Sc Ac trans]
+31.0 +22.1 59 +40 +52 опасность
солнечного
удара
1003.6 962.7
09 14.07 З 1 4000 м 6/4 600 м
[Sc Ac trans]
+34.2 +22.2 50 +43 +53 опасность
перегрева
1001.0 960.7
12 14.07 З 1 4000 м 9/4 600 м
[Sc Ac trans Ci fib]
+33.6 +22.1 51 +42 +43 опасность
перегрева
1000.1 959.7 +35.2
03 15.07 З 1 4000 м ясно +27.4 +24.4 84 +39 +48 очень
душно
1002.4 961.1 +24.6 0.0
06 15.07 З 1 4000 м 6/4 600 м
[Sc Ac cuf]
+32.2 +21.5 53 +40 +52 опасность
солнечного
удара
1002.3 961.6
09 15.07 З 1 4000 м 6/4 600 м
[Sc Ac trans]
+34.8 +20.1 42 +41 +50 опасность
перегрева
998.9 958.7
12 15.07 З 1 4000 м ясно +34.6 +22.7 50 +44 +47 опасность
перегрева
998.9 958.7 +35.6
03 16.07 З 1 4000 м ясно +28.2 +23.8 77 +39 +48 очень
душно
1004.2 962.9 +25.0
06 16.07 З 1 4000 м 6/4 600 м
[Sc Ac trans Ci fib]
+32.4 +20.3 49 +39 +52 опасность
солнечного
удара
1003.3 962.6
09 16.07 З 1 4000 м 6/4 600 м
[Sc Ac trans Ci fib]
+36.0 +19.4 38 +41 +51 опасность
перегрева
1000.6 960.5
12 16.07 З 1 4000 м 6/4 600 м
[Sc Ac trans]
+35.4 +19.9 40 +41 +42 опасность
перегрева
999.6 959.5 +36.4
03 17.07 З 1 4000 м ясно +28.2 +19.2 58 +34 +43 очень
душно
1004.1 962.8 +23.4
09 17.07 З 1 4000 м 6/4 600 м
[Sc Ac trans]
+36.8 +21.5 41 +44 +53 опасность
перегрева
1000.4 960.4
12 17.07 З 1 4000 м 6/4 600 м
[Sc Ac trans]
+36.0 +21.6 43 +44 +45 опасность
перегрева
998.4 958.4 +37.6
03 18.07 З 1 4000 м ясно +29.4 +22.6 67 +39 +48 очень
душно
1002.3 961.3 +26.0
06 18.07 З 1 4000 м ясно +36.0 +21.2 42 +43 +68 опасность
перегрева
1002.6 962.4
09 18.07 С 1 4000 м ясно +38.2 +21.5 38 +45 +65 опасность
перегрева
998.0 958.3
12 18.07 З 1 4000 м 6/4 600 м
[Sc Ac trans]
+33.0 +20.7 48 +40 +41 очень
душно
997.5 957.1 +38.8
03 19.07 З 1 4000 м 6/4 600 м
[Sc Ac trans]
+29.4 +23.8 72 +40 +45 очень
душно
1001.5 960.5 +25.2
06 19.07 З 1 2000 м 9/4 600 м
[Sc Ac trans Ci fib]
+26.4 +24.7 90 +37 +46 очень
душно
1002.1 960.7 12
09 19.07 З 1 2000 м 9/4 600 м
[Sc Ac trans Ci fib]
+27.8 +23.8 79 +38 +45 очень
душно
1000.0 958.9 16
12 19.07 С 1 2000 м 9/4 600 м
[Sc Ac trans Ci fib]
+29.2 +23.9 73 +40 +41 очень
душно
998.9 958.0 +29.6 16

 

Местоположение метеостанции Амравати (Махараштра, Индия): широта 20.93 долгота 77.78 высота над уровнем моря 370 м.

В архиве по умолчанию представлена погода в Амравати за последнюю неделю. Архивные данные за месяц целиком и за предыдущие месяцы, начиная с января 2011 года, Вы можете получить, выбрав интересующий диапазон дат из раскрывающегося списка и нажав кнопку "Ввод!".


*Определитесь, кто Вы:
робот инопланетянин человек

Внимание! Время в таблицах - всемирное. Для получения местного времени необходимо прибавить поправку, которая равна 5.5 ч.

Смотрите также архив погоды в соседних городах и на ближайших метеорологических станциях:

Погода в Яватмале (Махараштра, Индия) (70 км)
Погода в Аколе (Махараштра, Индия) (82 км)
Погода в Вардхе (Махараштра, Индия) (88 км)
Погода в Бетуле (Мадхья-Прадеш, Индия) (106 км)
Погода в Вашиме (Махараштра, Индия) (113 км)
Погода в Нагпуре (Махараштра, Индия) (133 км)
Погода в Адилабаде (Телингана, Индия) (162 км)
Погода в Булдхане (Махараштра, Индия) (167 км)
Погода в Кхандве (Мадхья-Прадеш, Индия) (177 км)
Погода в Чхиндваре (Мадхья-Прадеш, Индия) (181 км)

Пояснения к столбцам:

Ветер - указаны скорость ветра в м/с - средняя за 10 мин, порывы в срок и между сроками (в фигурных скобках) и направление, откуда дует ветер: С - северный, СВ - северо-восточный, В - восточный, ЮВ - юго-восточный, Ю - южный, ЮЗ - юго-западный, З - западный, СЗ - северо-западный.
Видимость - горизонтальная дальность видимости в метрах или километрах. При видимости от 1 до 10 км при отсутствии осадков обычно наблюдается дымка, при ухудшении видимости до 1 км и менее - туман. В сухую погоду видимость может ухудшаться дымом, пылью или мглою.
Явления - указаны атмосферные явления, наблюдавшиеся в срок или в последний час перед сроком; фигурными скобками обозначены явления, наблюдавшиеся между сроками (за 1-3 часа до срока); квадратными скобками обозначены град или гололедные отложения с указанием их диаметра в мм.
Облачность - указаны через наклонную черту общая и нижняя облачность в баллах и высота нижней границы облаков в метрах; квадратными скобками обозначены формы облаков: Ci - перистые, Cs - перисто-слоистые, Cc - перисто-кучевые, Ac - высококучевые, As - высокослоистые, Sc - слоисто-кучевые, Ns - слоисто-дождевые, Cu - кучевые, Cb - кучево-дождевые. Подробнее классификацию облаков см. в Атласе облаков (PDF).
T - Температура воздуха - температура, измеренная на высоте 2 м над землей.
Td - Температура точки росы - температура, при понижении до которой содержащийся в воздухе водяной пар достигнет насыщения.
f - Относительная влажность воздуха - влажноcть воздуха, измеренная на высоте 2 м над землей.
Te - Эффективная температура - температура, которую ощущает одетый по сезону человек в тени. Характеристика душности погоды. При расчете учитывается влияние влажности воздуха и скорости ветра на теплоощущения человека.
Tes - Эффективная температура на солнце - температура, которую ощущает человек, с поправкой на солнечный нагрев. Характеристика знойности погоды. Зависит от высоты солнца над горизонтом, облачности и скорости ветра. Ночью, в пасмурную погоду, а также при ветре 12 м/с и более поправка равна нулю.
P - Атмосферное давление - приведенное к уровню моря атмосферное давление.
Po - Атмосферное давление - измеренное на уровне метеостанции атмосферное давление.
Tmin - Минимальная температура - минимум температуры воздуха на высоте 2 м над землей.
Tmax - Максимальная температура - максимум температуры воздуха на высоте 2 м над землей.
R - Количество осадков - Количество выпавших осадков за период времени, мм. При наведении курсора мыши на число - период времени, за который выпало указанное количество осадков.
R24 - Количество осадков - Количество выпавших осадков за 24 часа, мм.
S - Снежный покров - Высота снежного покрова, см. При наведении курсора мыши на число - состояние снежного покрова и степень покрытия местности в баллах.